iso_date,Year,Hour,Min,DOY,POS_DOY,Lat,Lon,BP,Ts,Ta,has_bp,has_ts,has_ta,BuoyID,Buoy_Type,Buoy_Owner,Logistics,Hemisphere
2020-10-30T19:00:02Z,2020,19,0,304.7917,304.7917,57.213,-59.048,1003.9,2.55,-999.0,yes,yes,no,300234067974100,BD2GI,AOML,CCGS_AMUNDSEN,North
2020-10-30T19:59:57Z,2020,20,0,304.8333,304.8333,57.202,-59.046,1004.8,2.5,-999.0,yes,yes,no,300234067974100,BD2GI,AOML,CCGS_AMUNDSEN,North
2020-10-30T21:00:00Z,2020,21,0,304.875,304.875,57.192,-59.049,1005.7,2.46,-999.0,yes,yes,no,300234067974100,BD2GI,AOML,CCGS_AMUNDSEN,North
2020-10-30T22:00:02Z,2020,22,0,304.9167,304.9167,57.183,-59.052,1006.7,2.28,-999.0,yes,yes,no,300234067974100,BD2GI,AOML,CCGS_AMUNDSEN,North
2020-10-30T22:59:57Z,2020,23,0,304.9583,304.9583,57.174,-59.056,1007.2,2.25,-999.0,yes,yes,no,300234067974100,BD2GI,AOML,CCGS_AMUNDSEN,North
2020-10-31T00:00:00Z,2020,0,0,305.0,305.0,57.167,-59.063,1007.5,2.23,-999.0,yes,yes,no,300234067974100,BD2GI,AOML,CCGS_AMUNDSEN,North
2020-10-31T01:00:02Z,2020,1,0,305.0417,305.0417,57.162,-59.066,1007.9,2.15,-999.0,yes,yes,no,300234067974100,BD2GI,AOML,CCGS_AMUNDSEN,North
2020-10-31T01:59:57Z,2020,2,0,305.0833,305.0833,57.155,-59.066,1008.1,2.1,-999.0,yes,yes,no,300234067974100,BD2GI,AOML,CCGS_AMUNDSEN,North
2020-10-31T03:00:00Z,2020,3,0,305.125,305.125,57.147,-59.066,1008.2,2.06,-999.0,yes,yes,no,300234067974100,BD2GI,AOML,CCGS_AMUNDSEN,North
2020-10-31T04:00:02Z,2020,4,0,305.1667,305.1667,57.14,-59.062,1008.0,2.01,-999.0,yes,yes,no,300234067974100,BD2GI,AOML,CCGS_AMUNDSEN,North
2020-10-31T04:59:57Z,2020,5,0,305.2083,305.2083,57.134,-59.054,1007.9,1.95,-999.0,yes,yes,no,300234067974100,BD2GI,AOML,CCGS_AMUNDSEN,North
2020-10-31T06:00:00Z,2020,6,0,305.25,305.25,57.124,-59.049,1008.0,1.91,-999.0,yes,yes,no,300234067974100,BD2GI,AOML,CCGS_AMUNDSEN,North
2020-10-31T07:00:02Z,2020,7,0,305.2917,305.2917,57.109,-59.049,1007.8,1.93,-999.0,yes,yes,no,300234067974100,BD2GI,AOML,CCGS_AMUNDSEN,North
2020-10-31T07:59:57Z,2020,8,0,305.3333,305.3333,57.093,-59.056,1007.6,1.56,-999.0,yes,yes,no,300234067974100,BD2GI,AOML,CCGS_AMUNDSEN,North
2020-10-31T09:00:00Z,2020,9,0,305.375,305.375,57.068,-59.08,1007.4,1.47,-999.0,yes,yes,no,300234067974100,BD2GI,AOML,CCGS_AMUNDSEN,North
2020-10-31T10:00:02Z,2020,10,0,305.4167,305.4167,57.044,-59.098,1007.1,1.52,-999.0,yes,yes,no,300234067974100,BD2GI,AOML,CCGS_AMUNDSEN,North
2020-10-31T10:59:57Z,2020,11,0,305.4583,305.4583,57.023,-59.114,1007.0,1.56,-999.0,yes,yes,no,300234067974100,BD2GI,AOML,CCGS_AMUNDSEN,North
2020-10-31T12:00:00Z,2020,12,0,305.5,305.5,57.0,-59.123,1006.9,1.56,-999.0,yes,yes,no,300234067974100,BD2GI,AOML,CCGS_AMUNDSEN,North
2020-10-31T13:00:02Z,2020,13,0,305.5417,305.5417,56.974,-59.126,1006.6,1.48,-999.0,yes,yes,no,300234067974100,BD2GI,AOML,CCGS_AMUNDSEN,North
2020-10-31T13:59:57Z,2020,14,0,305.5833,305.5833,56.949,-59.123,1006.0,1.59,-999.0,yes,yes,no,300234067974100,BD2GI,AOML,CCGS_AMUNDSEN,North
2020-10-31T15:00:00Z,2020,15,0,305.625,305.625,56.919,-59.116,1005.8,1.4,-999.0,yes,yes,no,300234067974100,BD2GI,AOML,CCGS_AMUNDSEN,North
2020-10-31T16:00:02Z,2020,16,0,305.6667,305.6667,56.889,-59.105,1005.5,1.45,-999.0,yes,yes,no,300234067974100,BD2GI,AOML,CCGS_AMUNDSEN,North
2020-10-31T16:59:57Z,2020,17,0,305.7083,305.7083,56.863,-59.087,1005.5,1.72,-999.0,yes,yes,no,300234067974100,BD2GI,AOML,CCGS_AMUNDSEN,North
2020-10-31T18:00:00Z,2020,18,0,305.75,305.75,56.846,-59.068,1005.5,1.8,-999.0,yes,yes,no,300234067974100,BD2GI,AOML,CCGS_AMUNDSEN,North
2020-10-31T19:00:02Z,2020,19,0,305.7917,305.7917,56.835,-59.053,1005.6,1.88,-999.0,yes,yes,no,300234067974100,BD2GI,AOML,CCGS_AMUNDSEN,North
2020-10-31T19:59:57Z,2020,20,0,305.8333,305.8333,56.829,-59.044,1006.0,1.91,-999.0,yes,yes,no,300234067974100,BD2GI,AOML,CCGS_AMUNDSEN,North
2020-10-31T21:00:00Z,2020,21,0,305.875,305.875,56.827,-59.035,1006.3,1.91,-999.0,yes,yes,no,300234067974100,BD2GI,AOML,CCGS_AMUNDSEN,North
2020-10-31T22:00:02Z,2020,22,0,305.9167,305.9167,56.826,-59.023,1006.4,1.94,-999.0,yes,yes,no,300234067974100,BD2GI,AOML,CCGS_AMUNDSEN,North
2020-10-31T22:59:57Z,2020,23,0,305.9583,305.9583,56.826,-59.011,1007.1,2.04,-999.0,yes,yes,no,300234067974100,BD2GI,AOML,CCGS_AMUNDSEN,North
2020-11-01T00:00:00Z,2020,0,0,306.0,306.0,56.826,-58.995,1007.3,2.18,-999.0,yes,yes,no,300234067974100,BD2GI,AOML,CCGS_AMUNDSEN,North
2020-11-01T01:00:02Z,2020,1,0,306.0417,306.0417,56.821,-58.977,1008.2,2.15,-999.0,yes,yes,no,300234067974100,BD2GI,AOML,CCGS_AMUNDSEN,North
2020-11-01T01:59:57Z,2020,2,0,306.0833,306.0833,56.815,-58.965,1009.1,2.12,-999.0,yes,yes,no,300234067974100,BD2GI,AOML,CCGS_AMUNDSEN,North
2020-11-01T03:00:00Z,2020,3,0,306.125,306.125,56.811,-58.956,1009.6,2.1,-999.0,yes,yes,no,300234067974100,BD2GI,AOML,CCGS_AMUNDSEN,North
2020-11-01T04:00:02Z,2020,4,0,306.1667,306.1667,56.807,-58.946,1009.9,2.08,-999.0,yes,yes,no,300234067974100,BD2GI,AOML,CCGS_AMUNDSEN,North
2020-11-01T04:59:57Z,2020,5,0,306.2083,306.2083,56.803,-58.939,1010.3,2.06,-999.0,yes,yes,no,300234067974100,BD2GI,AOML,CCGS_AMUNDSEN,North
2020-11-01T06:00:00Z,2020,6,0,306.25,306.25,56.8,-58.935,1011.0,2.05,-999.0,yes,yes,no,300234067974100,BD2GI,AOML,CCGS_AMUNDSEN,North
2020-11-01T07:00:02Z,2020,7,0,306.2917,306.2917,56.799,-58.931,1011.3,2.04,-999.0,yes,yes,no,300234067974100,BD2GI,AOML,CCGS_AMUNDSEN,North
2020-11-01T07:59:57Z,2020,8,0,306.3333,306.3333,56.798,-58.923,1012.1,2.03,-999.0,yes,yes,no,300234067974100,BD2GI,AOML,CCGS_AMUNDSEN,North
2020-11-01T09:00:00Z,2020,9,0,306.375,306.375,56.8,-58.912,1012.4,2.02,-999.0,yes,yes,no,300234067974100,BD2GI,AOML,CCGS_AMUNDSEN,North
2020-11-01T10:00:02Z,2020,10,0,306.4167,306.4167,56.802,-58.897,1012.6,2.02,-999.0,yes,yes,no,300234067974100,BD2GI,AOML,CCGS_AMUNDSEN,North
2020-11-01T10:59:57Z,2020,11,0,306.4583,306.4583,56.807,-58.878,1012.7,2.06,-999.0,yes,yes,no,300234067974100,BD2GI,AOML,CCGS_AMUNDSEN,North
2020-11-01T12:00:00Z,2020,12,0,306.5,306.5,56.81,-58.852,1013.0,1.91,-999.0,yes,yes,no,300234067974100,BD2GI,AOML,CCGS_AMUNDSEN,North
2020-11-01T13:00:02Z,2020,13,0,306.5417,306.5417,56.813,-58.821,1012.8,1.85,-999.0,yes,yes,no,300234067974100,BD2GI,AOML,CCGS_AMUNDSEN,North
2020-11-01T13:59:57Z,2020,14,0,306.5833,306.5833,56.819,-58.793,1012.6,1.74,-999.0,yes,yes,no,300234067974100,BD2GI,AOML,CCGS_AMUNDSEN,North
2020-11-01T15:00:00Z,2020,15,0,306.625,306.625,56.824,-58.764,1012.0,1.75,-999.0,yes,yes,no,300234067974100,BD2GI,AOML,CCGS_AMUNDSEN,North
2020-11-01T16:00:02Z,2020,16,0,306.6667,306.6667,56.828,-58.732,1011.4,1.74,-999.0,yes,yes,no,300234067974100,BD2GI,AOML,CCGS_AMUNDSEN,North
2020-11-01T16:59:57Z,2020,17,0,306.7083,306.7083,56.83,-58.701,1011.0,1.83,-999.0,yes,yes,no,300234067974100,BD2GI,AOML,CCGS_AMUNDSEN,North
2020-11-01T18:00:00Z,2020,18,0,306.75,306.75,56.831,-58.67,1010.2,1.75,-999.0,yes,yes,no,300234067974100,BD2GI,AOML,CCGS_AMUNDSEN,North
2020-11-01T19:00:02Z,2020,19,0,306.7917,306.7917,56.828,-58.638,1009.4,1.73,-999.0,yes,yes,no,300234067974100,BD2GI,AOML,CCGS_AMUNDSEN,North
2020-11-01T19:59:57Z,2020,20,0,306.8333,306.8333,56.822,-58.608,1008.4,1.74,-999.0,yes,yes,no,300234067974100,BD2GI,AOML,CCGS_AMUNDSEN,North
2020-11-01T21:00:00Z,2020,21,0,306.875,306.875,56.814,-58.579,1007.8,1.82,-999.0,yes,yes,no,300234067974100,BD2GI,AOML,CCGS_AMUNDSEN,North
2020-11-01T22:00:02Z,2020,22,0,306.9167,306.9167,56.806,-58.553,1006.7,1.83,-999.0,yes,yes,no,300234067974100,BD2GI,AOML,CCGS_AMUNDSEN,North
2020-11-01T22:59:57Z,2020,23,0,306.9583,306.9583,56.798,-58.529,1006.0,1.87,-999.0,yes,yes,no,300234067974100,BD2GI,AOML,CCGS_AMUNDSEN,North
2020-11-02T00:00:00Z,2020,0,0,307.0,307.0,56.79,-58.505,1004.9,1.92,-999.0,yes,yes,no,300234067974100,BD2GI,AOML,CCGS_AMUNDSEN,North
2020-11-02T01:00:02Z,2020,1,0,307.0417,307.0417,56.782,-58.479,1004.2,1.92,-999.0,yes,yes,no,300234067974100,BD2GI,AOML,CCGS_AMUNDSEN,North
2020-11-02T01:59:57Z,2020,2,0,307.0833,307.0833,56.771,-58.449,1003.3,1.96,-999.0,yes,yes,no,300234067974100,BD2GI,AOML,CCGS_AMUNDSEN,North
2020-11-02T03:00:00Z,2020,3,0,307.125,307.125,56.759,-58.423,1003.0,1.98,-999.0,yes,yes,no,300234067974100,BD2GI,AOML,CCGS_AMUNDSEN,North
2020-11-02T04:00:02Z,2020,4,0,307.1667,307.1667,56.744,-58.394,1002.1,1.96,-999.0,yes,yes,no,300234067974100,BD2GI,AOML,CCGS_AMUNDSEN,North
2020-11-02T04:59:57Z,2020,5,0,307.2083,307.2083,56.729,-58.368,1001.1,1.95,-999.0,yes,yes,no,300234067974100,BD2GI,AOML,CCGS_AMUNDSEN,North
2020-11-02T06:00:00Z,2020,6,0,307.25,307.25,56.714,-58.346,999.9,1.98,-999.0,yes,yes,no,300234067974100,BD2GI,AOML,CCGS_AMUNDSEN,North
2020-11-02T07:00:02Z,2020,7,0,307.2917,307.2917,56.7,-58.324,999.0,1.99,-999.0,yes,yes,no,300234067974100,BD2GI,AOML,CCGS_AMUNDSEN,North
2020-11-02T07:59:57Z,2020,8,0,307.3333,307.3333,56.687,-58.306,997.9,1.99,-999.0,yes,yes,no,300234067974100,BD2GI,AOML,CCGS_AMUNDSEN,North
2020-11-02T09:00:00Z,2020,9,0,307.375,307.375,56.674,-58.292,997.2,1.89,-999.0,yes,yes,no,300234067974100,BD2GI,AOML,CCGS_AMUNDSEN,North
2020-11-02T10:00:02Z,2020,10,0,307.4167,307.4167,56.66,-58.28,996.7,1.92,-999.0,yes,yes,no,300234067974100,BD2GI,AOML,CCGS_AMUNDSEN,North
2020-11-02T10:59:57Z,2020,11,0,307.4583,307.4583,56.647,-58.269,996.3,1.94,-999.0,yes,yes,no,300234067974100,BD2GI,AOML,CCGS_AMUNDSEN,North
2020-11-02T12:00:00Z,2020,12,0,307.5,307.5,56.634,-58.26,995.7,1.93,-999.0,yes,yes,no,300234067974100,BD2GI,AOML,CCGS_AMUNDSEN,North
2020-11-02T13:00:02Z,2020,13,0,307.5417,307.5417,56.624,-58.251,994.9,1.93,-999.0,yes,yes,no,300234067974100,BD2GI,AOML,CCGS_AMUNDSEN,North
2020-11-02T13:59:57Z,2020,14,0,307.5833,307.5833,56.614,-58.242,993.9,1.98,-999.0,yes,yes,no,300234067974100,BD2GI,AOML,CCGS_AMUNDSEN,North
2020-11-02T15:00:00Z,2020,15,0,307.625,307.625,56.605,-58.23,993.7,1.96,-999.0,yes,yes,no,300234067974100,BD2GI,AOML,CCGS_AMUNDSEN,North
2020-11-02T16:00:02Z,2020,16,0,307.6667,307.6667,56.595,-58.219,992.7,2.02,-999.0,yes,yes,no,300234067974100,BD2GI,AOML,CCGS_AMUNDSEN,North
2020-11-02T16:59:57Z,2020,17,0,307.7083,307.7083,56.585,-58.205,991.1,1.99,-999.0,yes,yes,no,300234067974100,BD2GI,AOML,CCGS_AMUNDSEN,North
2020-11-02T18:00:00Z,2020,18,0,307.75,307.75,56.573,-58.194,989.4,2.0,-999.0,yes,yes,no,300234067974100,BD2GI,AOML,CCGS_AMUNDSEN,North
2020-11-02T19:00:02Z,2020,19,0,307.7917,307.7917,56.559,-58.187,988.0,2.02,-999.0,yes,yes,no,300234067974100,BD2GI,AOML,CCGS_AMUNDSEN,North
2020-11-02T19:59:57Z,2020,20,0,307.8333,307.8333,56.545,-58.182,985.9,1.86,-999.0,yes,yes,no,300234067974100,BD2GI,AOML,CCGS_AMUNDSEN,North
2020-11-02T21:00:00Z,2020,21,0,307.875,307.875,56.532,-58.179,983.6,1.84,-999.0,yes,yes,no,300234067974100,BD2GI,AOML,CCGS_AMUNDSEN,North
2020-11-02T22:00:02Z,2020,22,0,307.9167,307.9167,56.517,-58.18,979.7,1.84,-999.0,yes,yes,no,300234067974100,BD2GI,AOML,CCGS_AMUNDSEN,North
2020-11-02T22:59:57Z,2020,23,0,307.9583,307.9583,56.503,-58.184,976.8,1.82,-999.0,yes,yes,no,300234067974100,BD2GI,AOML,CCGS_AMUNDSEN,North
2020-11-03T00:00:00Z,2020,0,0,308.0,308.0,56.489,-58.19,973.6,1.83,-999.0,yes,yes,no,300234067974100,BD2GI,AOML,CCGS_AMUNDSEN,North
2020-11-03T01:00:02Z,2020,1,0,308.0417,308.0417,56.477,-58.195,969.4,1.85,-999.0,yes,yes,no,300234067974100,BD2GI,AOML,CCGS_AMUNDSEN,North
2020-11-03T01:59:57Z,2020,2,0,308.0833,308.0833,56.468,-58.201,966.9,1.8,-999.0,yes,yes,no,300234067974100,BD2GI,AOML,CCGS_AMUNDSEN,North
2020-11-03T03:00:00Z,2020,3,0,308.125,308.125,56.459,-58.207,963.2,1.75,-999.0,yes,yes,no,300234067974100,BD2GI,AOML,CCGS_AMUNDSEN,North
2020-11-03T04:00:02Z,2020,4,0,308.1667,308.1667,56.449,-58.212,960.1,1.76,-999.0,yes,yes,no,300234067974100,BD2GI,AOML,CCGS_AMUNDSEN,North
2020-11-03T04:59:57Z,2020,5,0,308.2083,308.2083,56.439,-58.216,957.9,1.73,-999.0,yes,yes,no,300234067974100,BD2GI,AOML,CCGS_AMUNDSEN,North
2020-11-03T06:00:00Z,2020,6,0,308.25,308.25,56.426,-58.221,956.7,1.78,-999.0,yes,yes,no,300234067974100,BD2GI,AOML,CCGS_AMUNDSEN,North
2020-11-03T07:00:02Z,2020,7,0,308.2917,308.2917,56.409,-58.227,958.0,1.87,-999.0,yes,yes,no,300234067974100,BD2GI,AOML,CCGS_AMUNDSEN,North
2020-11-03T07:59:57Z,2020,8,0,308.3333,308.3333,56.392,-58.229,961.8,2.0,-999.0,yes,yes,no,300234067974100,BD2GI,AOML,CCGS_AMUNDSEN,North
2020-11-03T09:00:00Z,2020,9,0,308.375,308.375,56.374,-58.234,965.8,2.07,-999.0,yes,yes,no,300234067974100,BD2GI,AOML,CCGS_AMUNDSEN,North
2020-11-03T10:00:02Z,2020,10,0,308.4167,308.4167,56.359,-58.24,969.6,2.07,-999.0,yes,yes,no,300234067974100,BD2GI,AOML,CCGS_AMUNDSEN,North
2020-11-03T10:59:57Z,2020,11,0,308.4583,308.4583,56.347,-58.247,974.0,2.07,-999.0,yes,yes,no,300234067974100,BD2GI,AOML,CCGS_AMUNDSEN,North
2020-11-03T12:00:00Z,2020,12,0,308.5,308.5,56.338,-58.251,977.2,2.07,-999.0,yes,yes,no,300234067974100,BD2GI,AOML,CCGS_AMUNDSEN,North
2020-11-03T13:00:02Z,2020,13,0,308.5417,308.5417,56.332,-58.257,980.2,1.83,-999.0,yes,yes,no,300234067974100,BD2GI,AOML,CCGS_AMUNDSEN,North
2020-11-03T13:59:57Z,2020,14,0,308.5833,308.5833,56.325,-58.265,982.6,1.83,-999.0,yes,yes,no,300234067974100,BD2GI,AOML,CCGS_AMUNDSEN,North
2020-11-03T15:00:00Z,2020,15,0,308.625,308.625,56.32,-58.269,984.5,1.74,-999.0,yes,yes,no,300234067974100,BD2GI,AOML,CCGS_AMUNDSEN,North
2020-11-03T16:00:02Z,2020,16,0,308.6667,308.6667,56.314,-58.268,986.4,1.74,-999.0,yes,yes,no,300234067974100,BD2GI,AOML,CCGS_AMUNDSEN,North
2020-11-03T16:59:57Z,2020,17,0,308.7083,308.7083,56.309,-58.262,988.0,1.74,-999.0,yes,yes,no,300234067974100,BD2GI,AOML,CCGS_AMUNDSEN,North
2020-11-03T18:00:00Z,2020,18,0,308.75,308.75,56.304,-58.25,989.6,1.74,-999.0,yes,yes,no,300234067974100,BD2GI,AOML,CCGS_AMUNDSEN,North
2020-11-03T19:00:02Z,2020,19,0,308.7917,308.7917,56.297,-58.235,991.8,1.73,-999.0,yes,yes,no,300234067974100,BD2GI,AOML,CCGS_AMUNDSEN,North
2020-11-03T19:59:57Z,2020,20,0,308.8333,308.8333,56.288,-58.222,993.8,1.72,-999.0,yes,yes,no,300234067974100,BD2GI,AOML,CCGS_AMUNDSEN,North
2020-11-03T21:00:00Z,2020,21,0,308.875,308.875,56.277,-58.213,994.9,1.7,-999.0,yes,yes,no,300234067974100,BD2GI,AOML,CCGS_AMUNDSEN,North
2020-11-03T22:00:02Z,2020,22,0,308.9167,308.9167,56.264,-58.207,996.8,1.69,-999.0,yes,yes,no,300234067974100,BD2GI,AOML,CCGS_AMUNDSEN,North
2020-11-03T22:59:57Z,2020,23,0,308.9583,308.9583,56.253,-58.206,998.3,1.68,-999.0,yes,yes,no,300234067974100,BD2GI,AOML,CCGS_AMUNDSEN,North
2020-11-04T00:00:00Z,2020,0,0,309.0,309.0,56.241,-58.205,999.9,1.67,-999.0,yes,yes,no,300234067974100,BD2GI,AOML,CCGS_AMUNDSEN,North
2020-11-04T01:00:02Z,2020,1,0,309.0417,309.0417,56.231,-58.204,1000.9,1.67,-999.0,yes,yes,no,300234067974100,BD2GI,AOML,CCGS_AMUNDSEN,North
2020-11-04T01:59:57Z,2020,2,0,309.0833,309.0833,56.224,-58.201,1002.0,1.66,-999.0,yes,yes,no,300234067974100,BD2GI,AOML,CCGS_AMUNDSEN,North
2020-11-04T03:00:00Z,2020,3,0,309.125,309.125,56.217,-58.192,1002.9,1.65,-999.0,yes,yes,no,300234067974100,BD2GI,AOML,CCGS_AMUNDSEN,North
2020-11-04T04:00:02Z,2020,4,0,309.1667,309.1667,56.21,-58.18,1003.6,1.64,-999.0,yes,yes,no,300234067974100,BD2GI,AOML,CCGS_AMUNDSEN,North
2020-11-04T04:59:57Z,2020,5,0,309.2083,309.2083,56.205,-58.169,1004.4,1.63,-999.0,yes,yes,no,300234067974100,BD2GI,AOML,CCGS_AMUNDSEN,North
2020-11-04T06:00:00Z,2020,6,0,309.25,309.25,56.199,-58.157,1005.0,1.63,-999.0,yes,yes,no,300234067974100,BD2GI,AOML,CCGS_AMUNDSEN,North
2020-11-04T07:00:02Z,2020,7,0,309.2917,309.2917,56.194,-58.142,1005.9,1.62,-999.0,yes,yes,no,300234067974100,BD2GI,AOML,CCGS_AMUNDSEN,North
2020-11-04T07:59:57Z,2020,8,0,309.3333,309.3333,56.192,-58.126,1006.8,1.61,-999.0,yes,yes,no,300234067974100,BD2GI,AOML,CCGS_AMUNDSEN,North
2020-11-04T09:00:00Z,2020,9,0,309.375,309.375,56.187,-58.109,1007.0,1.6,-999.0,yes,yes,no,300234067974100,BD2GI,AOML,CCGS_AMUNDSEN,North
2020-11-04T10:00:02Z,2020,10,0,309.4167,309.4167,56.183,-58.089,1008.2,1.6,-999.0,yes,yes,no,300234067974100,BD2GI,AOML,CCGS_AMUNDSEN,North
2020-11-04T10:59:57Z,2020,11,0,309.4583,309.4583,56.18,-58.07,1008.8,1.6,-999.0,yes,yes,no,300234067974100,BD2GI,AOML,CCGS_AMUNDSEN,North
2020-11-04T12:00:00Z,2020,12,0,309.5,309.5,56.178,-58.049,1009.3,1.59,-999.0,yes,yes,no,300234067974100,BD2GI,AOML,CCGS_AMUNDSEN,North
2020-11-04T13:00:02Z,2020,13,0,309.5417,309.5417,56.175,-58.027,1010.2,1.59,-999.0,yes,yes,no,300234067974100,BD2GI,AOML,CCGS_AMUNDSEN,North
2020-11-04T13:59:57Z,2020,14,0,309.5833,309.5833,56.172,-58.007,1010.5,1.59,-999.0,yes,yes,no,300234067974100,BD2GI,AOML,CCGS_AMUNDSEN,North
2020-11-04T15:00:00Z,2020,15,0,309.625,309.625,56.168,-57.985,1010.5,1.6,-999.0,yes,yes,no,300234067974100,BD2GI,AOML,CCGS_AMUNDSEN,North
2020-11-04T16:00:02Z,2020,16,0,309.6667,309.6667,56.164,-57.968,1010.8,1.57,-999.0,yes,yes,no,300234067974100,BD2GI,AOML,CCGS_AMUNDSEN,North
2020-11-04T16:59:57Z,2020,17,0,309.7083,309.7083,56.162,-57.95,1011.1,1.59,-999.0,yes,yes,no,300234067974100,BD2GI,AOML,CCGS_AMUNDSEN,North
2020-11-04T18:00:00Z,2020,18,0,309.75,309.75,56.16,-57.93,1011.9,1.62,-999.0,yes,yes,no,300234067974100,BD2GI,AOML,CCGS_AMUNDSEN,North
2020-11-04T19:00:02Z,2020,19,0,309.7917,309.7917,56.161,-57.91,1012.4,1.61,-999.0,yes,yes,no,300234067974100,BD2GI,AOML,CCGS_AMUNDSEN,North
2020-11-04T19:59:57Z,2020,20,0,309.8333,309.8333,56.159,-57.887,1013.0,1.57,-999.0,yes,yes,no,300234067974100,BD2GI,AOML,CCGS_AMUNDSEN,North
2020-11-04T21:00:00Z,2020,21,0,309.875,309.875,56.157,-57.863,1013.8,1.63,-999.0,yes,yes,no,300234067974100,BD2GI,AOML,CCGS_AMUNDSEN,North
2020-11-04T22:00:02Z,2020,22,0,309.9167,309.9167,56.153,-57.841,1014.3,1.63,-999.0,yes,yes,no,300234067974100,BD2GI,AOML,CCGS_AMUNDSEN,North
2020-11-04T22:59:57Z,2020,23,0,309.9583,309.9583,56.148,-57.815,1014.6,1.62,-999.0,yes,yes,no,300234067974100,BD2GI,AOML,CCGS_AMUNDSEN,North
2020-11-05T00:00:00Z,2020,0,0,310.0,310.0,56.142,-57.786,1015.4,1.63,-999.0,yes,yes,no,300234067974100,BD2GI,AOML,CCGS_AMUNDSEN,North
2020-11-05T01:00:02Z,2020,1,0,310.0417,310.0417,56.135,-57.755,1016.3,1.62,-999.0,yes,yes,no,300234067974100,BD2GI,AOML,CCGS_AMUNDSEN,North
2020-11-05T01:59:57Z,2020,2,0,310.0833,310.0833,56.124,-57.72,1017.2,1.62,-999.0,yes,yes,no,300234067974100,BD2GI,AOML,CCGS_AMUNDSEN,North
2020-11-05T03:00:00Z,2020,3,0,310.125,310.125,56.112,-57.686,1018.0,1.62,-999.0,yes,yes,no,300234067974100,BD2GI,AOML,CCGS_AMUNDSEN,North
2020-11-05T04:00:02Z,2020,4,0,310.1667,310.1667,56.097,-57.649,1019.2,1.61,-999.0,yes,yes,no,300234067974100,BD2GI,AOML,CCGS_AMUNDSEN,North
2020-11-05T04:59:57Z,2020,5,0,310.2083,310.2083,56.08,-57.616,1020.2,1.61,-999.0,yes,yes,no,300234067974100,BD2GI,AOML,CCGS_AMUNDSEN,North
2020-11-05T06:00:00Z,2020,6,0,310.25,310.25,56.058,-57.585,1021.2,1.6,-999.0,yes,yes,no,300234067974100,BD2GI,AOML,CCGS_AMUNDSEN,North
2020-11-05T07:00:02Z,2020,7,0,310.2917,310.2917,56.037,-57.556,1022.1,1.51,-999.0,yes,yes,no,300234067974100,BD2GI,AOML,CCGS_AMUNDSEN,North
2020-11-05T07:59:57Z,2020,8,0,310.3333,310.3333,56.014,-57.528,1022.8,1.48,-999.0,yes,yes,no,300234067974100,BD2GI,AOML,CCGS_AMUNDSEN,North
2020-11-05T09:00:00Z,2020,9,0,310.375,310.375,55.994,-57.502,1023.3,1.47,-999.0,yes,yes,no,300234067974100,BD2GI,AOML,CCGS_AMUNDSEN,North
2020-11-05T10:00:02Z,2020,10,0,310.4167,310.4167,55.973,-57.477,1023.9,1.47,-999.0,yes,yes,no,300234067974100,BD2GI,AOML,CCGS_AMUNDSEN,North
2020-11-05T10:59:57Z,2020,11,0,310.4583,310.4583,55.953,-57.447,1024.1,1.51,-999.0,yes,yes,no,300234067974100,BD2GI,AOML,CCGS_AMUNDSEN,North
2020-11-05T12:00:00Z,2020,12,0,310.5,310.5,55.931,-57.41,1024.4,1.54,-999.0,yes,yes,no,300234067974100,BD2GI,AOML,CCGS_AMUNDSEN,North
2020-11-05T13:00:02Z,2020,13,0,310.5417,310.5417,55.907,-57.379,1024.6,1.54,-999.0,yes,yes,no,300234067974100,BD2GI,AOML,CCGS_AMUNDSEN,North
2020-11-05T13:59:57Z,2020,14,0,310.5833,310.5833,55.881,-57.347,1024.7,1.54,-999.0,yes,yes,no,300234067974100,BD2GI,AOML,CCGS_AMUNDSEN,North
2020-11-05T15:00:00Z,2020,15,0,310.625,310.625,55.856,-57.316,1024.1,1.54,-999.0,yes,yes,no,300234067974100,BD2GI,AOML,CCGS_AMUNDSEN,North
2020-11-05T16:00:02Z,2020,16,0,310.6667,310.6667,55.831,-57.286,1023.3,1.6,-999.0,yes,yes,no,300234067974100,BD2GI,AOML,CCGS_AMUNDSEN,North
2020-11-05T16:59:57Z,2020,17,0,310.7083,310.7083,55.806,-57.253,1023.1,1.6,-999.0,yes,yes,no,300234067974100,BD2GI,AOML,CCGS_AMUNDSEN,North
2020-11-05T18:00:00Z,2020,18,0,310.75,310.75,55.779,-57.223,1022.3,1.54,-999.0,yes,yes,no,300234067974100,BD2GI,AOML,CCGS_AMUNDSEN,North
2020-11-05T19:00:02Z,2020,19,0,310.7917,310.7917,55.751,-57.197,1021.4,1.51,-999.0,yes,yes,no,300234067974100,BD2GI,AOML,CCGS_AMUNDSEN,North
2020-11-05T19:59:57Z,2020,20,0,310.8333,310.8333,55.724,-57.174,1019.7,1.48,-999.0,yes,yes,no,300234067974100,BD2GI,AOML,CCGS_AMUNDSEN,North
2020-11-05T21:00:00Z,2020,21,0,310.875,310.875,55.702,-57.156,1017.8,1.52,-999.0,yes,yes,no,300234067974100,BD2GI,AOML,CCGS_AMUNDSEN,North
2020-11-05T22:00:02Z,2020,22,0,310.9167,310.9167,55.683,-57.139,1015.4,1.52,-999.0,yes,yes,no,300234067974100,BD2GI,AOML,CCGS_AMUNDSEN,North
2020-11-05T22:59:57Z,2020,23,0,310.9583,310.9583,55.666,-57.122,1012.6,1.5,-999.0,yes,yes,no,300234067974100,BD2GI,AOML,CCGS_AMUNDSEN,North
2020-11-06T00:00:00Z,2020,0,0,311.0,311.0,55.651,-57.105,1010.2,1.45,-999.0,yes,yes,no,300234067974100,BD2GI,AOML,CCGS_AMUNDSEN,North
2020-11-06T01:00:02Z,2020,1,0,311.0417,311.0417,55.636,-57.086,1007.5,1.39,-999.0,yes,yes,no,300234067974100,BD2GI,AOML,CCGS_AMUNDSEN,North
2020-11-06T01:59:57Z,2020,2,0,311.0833,311.0833,55.625,-57.063,1005.0,1.39,-999.0,yes,yes,no,300234067974100,BD2GI,AOML,CCGS_AMUNDSEN,North
2020-11-06T03:00:00Z,2020,3,0,311.125,311.125,55.618,-57.039,1003.4,1.41,-999.0,yes,yes,no,300234067974100,BD2GI,AOML,CCGS_AMUNDSEN,North
2020-11-06T04:00:02Z,2020,4,0,311.1667,311.1667,55.61,-57.008,1002.1,1.42,-999.0,yes,yes,no,300234067974100,BD2GI,AOML,CCGS_AMUNDSEN,North
2020-11-06T04:59:57Z,2020,5,0,311.2083,311.2083,55.603,-56.971,1001.3,1.42,-999.0,yes,yes,no,300234067974100,BD2GI,AOML,CCGS_AMUNDSEN,North
2020-11-06T06:00:00Z,2020,6,0,311.25,311.25,55.593,-56.928,1001.1,1.41,-999.0,yes,yes,no,300234067974100,BD2GI,AOML,CCGS_AMUNDSEN,North
2020-11-06T07:00:02Z,2020,7,0,311.2917,311.2917,55.58,-56.884,1001.4,1.39,-999.0,yes,yes,no,300234067974100,BD2GI,AOML,CCGS_AMUNDSEN,North
2020-11-06T07:59:57Z,2020,8,0,311.3333,311.3333,55.566,-56.845,1002.5,1.42,-999.0,yes,yes,no,300234067974100,BD2GI,AOML,CCGS_AMUNDSEN,North
2020-11-06T09:00:00Z,2020,9,0,311.375,311.375,55.554,-56.809,1003.4,1.47,-999.0,yes,yes,no,300234067974100,BD2GI,AOML,CCGS_AMUNDSEN,North
2020-11-06T10:00:02Z,2020,10,0,311.4167,311.4167,55.55,-56.779,1004.2,1.42,-999.0,yes,yes,no,300234067974100,BD2GI,AOML,CCGS_AMUNDSEN,North
2020-11-06T10:59:57Z,2020,11,0,311.4583,311.4583,55.552,-56.746,1004.9,1.44,-999.0,yes,yes,no,300234067974100,BD2GI,AOML,CCGS_AMUNDSEN,North
2020-11-06T12:00:00Z,2020,12,0,311.5,311.5,55.554,-56.717,1006.1,1.56,-999.0,yes,yes,no,300234067974100,BD2GI,AOML,CCGS_AMUNDSEN,North
2020-11-06T13:00:02Z,2020,13,0,311.5417,311.5417,55.557,-56.684,1006.9,1.57,-999.0,yes,yes,no,300234067974100,BD2GI,AOML,CCGS_AMUNDSEN,North
2020-11-06T13:59:57Z,2020,14,0,311.5833,311.5833,55.558,-56.651,1007.1,1.58,-999.0,yes,yes,no,300234067974100,BD2GI,AOML,CCGS_AMUNDSEN,North
2020-11-06T15:00:00Z,2020,15,0,311.625,311.625,55.561,-56.621,1006.7,1.58,-999.0,yes,yes,no,300234067974100,BD2GI,AOML,CCGS_AMUNDSEN,North
2020-11-06T16:00:02Z,2020,16,0,311.6667,311.6667,55.563,-56.59,1006.9,1.57,-999.0,yes,yes,no,300234067974100,BD2GI,AOML,CCGS_AMUNDSEN,North
2020-11-06T16:59:57Z,2020,17,0,311.7083,311.7083,55.565,-56.568,1006.8,1.55,-999.0,yes,yes,no,300234067974100,BD2GI,AOML,CCGS_AMUNDSEN,North
2020-11-06T18:00:00Z,2020,18,0,311.75,311.75,55.567,-56.543,1007.6,1.55,-999.0,yes,yes,no,300234067974100,BD2GI,AOML,CCGS_AMUNDSEN,North
2020-11-06T19:00:02Z,2020,19,0,311.7917,311.7917,55.57,-56.514,1007.9,1.55,-999.0,yes,yes,no,300234067974100,BD2GI,AOML,CCGS_AMUNDSEN,North
2020-11-06T19:59:57Z,2020,20,0,311.8333,311.8333,55.572,-56.483,1007.7,1.54,-999.0,yes,yes,no,300234067974100,BD2GI,AOML,CCGS_AMUNDSEN,North
2020-11-06T21:00:00Z,2020,21,0,311.875,311.875,55.572,-56.446,1008.4,1.54,-999.0,yes,yes,no,300234067974100,BD2GI,AOML,CCGS_AMUNDSEN,North